Flag for U.S.A. Weather past 2 weeks in Columbus, Georgia, U.S.A.

Now
73 °F

Clear.


Feels Like: 70 °F
Forecast: 71 / 92 °F
Wind: No wind

Location: Columbus Metropolitan Airport

Current Time: Sep 4, 2015 at 4:57:22 AM

Latest Report: Sep 4, 2015 at 3:51 AM


Visibility: 10 mi

Pressure: 29.93 "Hg

Humidity: 94%

Dew point: 71 °F

Location of ColumbusLocation

Historic Weather in Columbus — Graph

°F

Columbus temperature yesterday

Maximum temperature yesterday: 93 °F (at 3:51 PM)
Minimum temperature yesterday: 75 °F (at 5:51 AM)
Average temperature yesterday: 82 °F

Past Weeks' High & Low Weather Summary

 TemperatureHumidityPressure
High93 °F (Aug 24, 4:51 PM)100% (Aug 23, 7:53 AM)30.15 "Hg (Aug 23, 7:53 AM)
Low63 °F (Aug 26, 6:51 AM)29% (Aug 25, 6:51 PM)29.87 "Hg (Aug 24, 6:51 PM)
Average79 °F71%30.00 "Hg
* Reported Aug 20 2:51 AM — Sep 4 2:51 AM, Columbus, Weather by CustomWeather, © 2015

Note: Actual official high and low records may vary slightly from our data, if they occured in-between our weather recording intervals... More about our weather records

Advertising

Columbus weather history for previous 24 hours

 ConditionsComfort  
Time TempWeatherWind HumidityBarometerVisibility
2:51 AM
Fri, Sep 4
74 °FClear.No wind91%29.93 "Hg10 mi
1:51 AM76 °FClear.No wind85%29.93 "Hg10 mi
12:51 AM76 °FClear.No wind85%29.92 "Hg10 mi
11:51 PM
Thu, Sep 3
78 °FClear.No wind79%29.93 "Hg10 mi
10:51 PM80 °FClear.5 mph71%29.92 "Hg10 mi
9:51 PM82 °FClear.No wind65%29.91 "Hg10 mi
8:51 PM83 °FSunny.No wind61%29.90 "Hg10 mi
7:51 PM85 °FSunny.3 mph57%29.89 "Hg10 mi
6:51 PM89 °FSunny.7 mph50%29.90 "Hg10 mi
5:51 PM89 °FPartly sunny.7 mph50%29.90 "Hg10 mi
4:51 PM91 °FPassing clouds.7 mph47%29.90 "Hg10 mi
3:51 PM93 °FScattered clouds.6 mph40%29.91 "Hg10 mi
2:51 PM89 °FBroken clouds.No wind46%29.94 "Hg10 mi
1:51 PM87 °FSunny.No wind59%29.96 "Hg10 mi
12:51 PM85 °FSunny.No wind61%29.98 "Hg10 mi
11:51 AM81 °FSunny.No wind72%29.99 "Hg10 mi
10:51 AM80 °FSunny.No wind74%29.98 "Hg10 mi
9:51 AM78 °FSunny.6 mph82%29.98 "Hg10 mi
8:51 AM76 °FSunny.5 mph88%29.99 "Hg10 mi
7:51 AM75 °FPassing clouds.No wind90%29.98 "Hg10 mi
6:51 AM76 °FClear.No wind88%29.96 "Hg10 mi
5:51 AM75 °FClear.No wind90%29.95 "Hg10 mi
4:51 AM76 °FClear.No wind88%29.95 "Hg10 mi
Weather by CustomWeather, © 2015

See weather overviewHow to use our weather pages